#timestamp,LO_Frequency,Hit,StdDev 
1456754415.3,286046997.3,N
1456754435.1,286046997.5,N
1456754455.8,286046999.0,N
1456754475.7,286047000.6,N
1456754495.5,286046997.7,N
1456754515.3,286047000.0,N
1456754535.2,286046996.9,N
1456754555.9,286046998.2,N
1456754575.7,286047000.6,N
1456754595.6,286046995.0,N
1456754615.4,286046994.1,Y
1456754635.2,286046996.4,P
1456754655.1,286046997.6,N
1456754656.0,286046997.6,N
1456754675.8,286046997.3,Y
1456754695.6,286047000.7,P
1456754715.5,286047000.9,N
1456754735.3,286047002.4,N
1456754755.1,286046999.8,N
1456754775.9,286046999.9,N
1456754795.7,286047000.2,N
1456754815.5,286047000.8,N
1456754835.3,286047000.6,N
1456754855.2,286046999.1,N
1456754875.0,286046996.9,N
1456754875.9,286046996.9,N
1456754895.7,286046999.0,N
1456754915.6,286046998.7,N
1456754935.4,286046997.9,N
1456754955.2,286046999.1,N
1456754975.1,286047002.4,N
1456754976.0,286047002.4,N
1456754995.8,286047005.9,Y
1456755015.6,286047000.3,P
1456755035.5,286047000.3,N
1456755055.3,286047003.5,P
1456755075.1,286047004.0,N
1456755095.9,286047001.7,N
1456755115.7,286047004.7,N
1456755135.5,286047004.9,N
1456755155.4,286047006.8,Y
1456755175.2,286047004.2,P
1456755195.0,286046999.8,N
1456755195.9,286046999.8,N
1456755215.8,286046999.8,N
1456755235.6,286046999.8,N
1456755255.4,286047004.0,N
1456755275.3,286047005.9,Y
1456755295.1,286047003.8,P
1456755296.0,286047003.8,P
1456755315.8,286047002.0,N
1456755335.7,286047004.1,Y
1456755355.5,286047002.5,P
1456755375.3,286047000.7,P
1456755395.2,286047000.1,N
1456755415.9,286047002.4,N
1456755435.7,286047002.0,N
1456755455.6,286047002.9,N
1456755475.4,286047006.4,Y
1456755495.2,286047003.3,P
1456755515.1,286047001.4,N
1456755516.0,286047001.4,N
1456755535.8,286046999.9,N
1456755555.6,286047002.6,N
1456755575.5,286047004.3,Y
1456755595.3,286047001.3,P
1456755615.1,286047001.8,P
1456755635.9,286047004.7,P
1456755655.7,286047005.3,Y
1456755675.5,286047007.0,P
1456755695.4,286047008.4,P
1456755715.2,286047010.6,P
1456755735.0,286047013.6,Y
1456755735.9,286047013.6,P
1456755755.8,286047005.3,N
1456755775.6,286047003.3,N
1456755795.4,286047004.0,N
1456755815.3,286047005.2,N
1456755835.1,286047009.2,N
1456755836.0,286047009.2,N
1456755855.8,286047009.1,N
1456755875.7,286047006.5,N
1456755895.5,286047007.0,N
1456755915.3,286047007.6,N
1456755935.1,286047003.1,N
1456755955.9,286047005.6,N
1456755975.7,286047005.4,N
1456755995.5,286047002.0,N
1456756015.4,286047002.6,N
1456756035.2,286047000.4,N
1456756055.0,286047001.0,N
1456756055.9,286047001.0,N
1456756075.8,286046997.4,N
1456756095.6,286046997.7,N
1456756115.4,286046996.9,N
1456756135.3,286046995.9,N
1456756155.1,286046993.3,N
1456756156.0,286046993.3,N
1456756175.8,286046995.2,N
1456756195.7,286046995.1,N
1456756215.5,286046996.6,N
1456756235.3,286046995.0,N
1456756255.1,286046997.0,N
1456756275.9,286047000.7,N
1456756295.7,286046999.6,N
1456756315.5,286046993.9,N
1456756335.4,286046991.2,N
1456756355.2,286046987.3,N
1456756375.0,286046991.2,N
1456756375.9,286046991.2,N
1456756395.8,286046991.0,N
1456756415.6,286046991.5,N
1456756435.4,286046989.7,N
1456756455.3,286046986.1,N
1456756475.1,286046988.4,N
1456756476.0,286046988.4,N
1456756495.8,286046990.0,N
1456756515.7,286046989.6,N
1456756535.5,286046986.5,Y
1456756555.3,286046989.2,P
1456756575.2,286046988.6,P
1456756595.9,286046985.4,P
1456756615.7,286046985.9,Y
1456756635.6,286046997.0,P
1456756655.4,286046996.8,N
1456756675.2,286047001.1,N
1456756695.1,286046997.8,N
1456756696.0,286046997.8,N
1456756715.8,286046997.3,N
1456756735.6,286046995.9,N
1456756755.5,286046991.7,N
1456756775.3,286046992.6,N
1456756795.1,286046994.8,N
1456756815.8,286046992.2,N
1456756835.7,286046994.8,N
1456756855.5,286046992.4,N
1456756875.3,286046994.8,N
1456756895.2,286046991.8,N
1456756915.9,286046990.9,Y
1456756935.7,286046996.0,P
1456756955.6,286046999.3,N
1456756975.4,286046999.4,N
1456756995.2,286047001.2,N
1456757015.1,286047005.7,N
1456757016.0,286047005.7,N
1456757035.8,286047004.5,N
1456757055.6,286047005.0,N
1456757075.5,286047008.8,N
1456757095.3,286047009.6,N
1456757115.1,286047011.4,N
1456757135.9,286047013.7,N
1456757155.7,286047012.4,N
1456757175.5,286047012.0,N
1456757195.3,286047011.9,N
1456757215.2,286047011.7,N
1456757235.0,286047009.6,N
1456757235.9,286047009.6,N
1456757255.7,286047012.1,N
1456757275.6,286047013.0,N
1456757295.4,286047016.9,N
1456757315.2,286047018.7,Y
1456757335.1,286047010.0,P
1456757336.0,286047010.0,P
1456757355.8,286047009.5,P
1456757375.7,286047008.0,Y
1456757395.5,286047002.7,P
1456757415.3,286047004.2,N
1456757435.1,286047004.2,N
1456757455.9,286047003.3,N
1456757475.7,286047006.8,N
1456757495.5,286047009.0,Y
1456757515.4,286047002.2,P
1456757535.2,286047000.9,N
1456757555.0,286046999.7,N
1456757555.9,286046999.7,N
1456757575.8,286047001.1,N
1456757595.6,286047000.2,N
1456757615.4,286047000.3,N
1456757635.3,286046997.1,N
1456757655.1,286046999.6,N
1456757656.0,286046999.6,N
1456757675.8,286046999.6,N
1456757695.7,286046998.4,N
1456757715.5,286047000.9,N
1456757735.3,286046998.3,N
1456757755.2,286046995.0,N
1456757775.9,286046993.5,Y
1456757795.7,286046994.3,P
1456757815.6,286046990.3,P
1456757835.4,286046992.9,N
1456757855.2,286046994.2,N
1456757875.0,286046995.6,N
1456757876.0,286046995.6,N
1456757895.8,286046994.4,N
1456757915.6,286046994.1,N
1456757935.5,286046990.2,Y
1456757955.3,286046994.7,P
1456757975.1,286046990.1,P
1456757995.8,286046988.9,P
